Flag for Brazil Weather past 2 weeks in Campinas, São Paulo, Brazil

Now
73 °F

Passing clouds.


Feels Like: 77 °F
Forecast: N/A
Wind: 10 mph from Southeast

Location: Campinas Aeroporto

Current Time: Apr 26, 2015 at 7:33:14 PM

Latest Report: Apr 26, 2015 at 6:00 PM


Visibility: N/A

Pressure: 30.09 "Hg

Humidity: 57%

Dew point: 57 °F

Location of CampinasLocation

Historic Weather in Campinas — Graph

°F

Campinas temperature yesterday

Maximum temperature yesterday: 79 °F (at 3:00 PM)
Minimum temperature yesterday: 63 °F (at 7:00 AM)
Average temperature yesterday: 69 °F

Past Weeks' High & Low Weather Summary

 TemperatureHumidityPressure
High86 °F (Apr 18, 2:00 PM)100% (Apr 16, 2:00 AM)30.18 "Hg (Apr 16, 2:00 AM)
Low59 °F (Apr 26, 6:00 AM)32% (Apr 12, 4:00 PM)29.89 "Hg (Apr 20, 4:00 PM)
Average72 °F76%30.05 "Hg
* Reported Apr 11 6:00 PM — Apr 26 6:00 PM, Campinas, Weather by CustomWeather, © 2015

Note: Actual official high and low records may vary slightly from our data, if they occured in-between our weather recording intervals... More about our weather records

Advertising

Campinas weather history for previous 24 hours

 ConditionsComfort  
Time TempWeatherWind HumidityBarometerVisibility
6:00 PM
Sun, Apr 26
73 °FPassing clouds.10 mph57%30.09 "HgN/A
5:00 PM75 °FPassing clouds.12 mph54%30.09 "HgN/A
4:00 PM77 °FPassing clouds.14 mph51%30.09 "HgN/A
3:00 PM77 °FScattered clouds.10 mph47%30.09 "HgN/A
2:00 PM75 °FScattered clouds.14 mph54%30.09 "HgN/A
1:00 PM75 °FScattered clouds.12 mph57%30.12 "HgN/A
12:00 PM73 °FPartly sunny.13 mph61%30.12 "HgN/A
11:00 AM72 °FPartly sunny.15 mph65%30.15 "HgN/A
10:00 AM70 °FScattered clouds.16 mph69%30.18 "HgN/A
9:00 AM68 °FScattered clouds.12 mph73%30.18 "HgN/A
8:00 AM64 °FPassing clouds.9 mph88%30.15 "HgN/A
7:00 AM59 °FScattered clouds.6 mph94%30.15 "HgN/A
6:00 AM59 °FPassing clouds.3 mph100%30.12 "HgN/A
5:00 AM61 °FPassing clouds.5 mph94%30.12 "HgN/A
4:00 AM61 °FPassing clouds.5 mph94%30.12 "HgN/A
3:00 AM61 °FPassing clouds.5 mph94%30.12 "HgN/A
2:00 AM61 °FPassing clouds.9 mph94%30.15 "HgN/A
1:00 AM63 °FPassing clouds.7 mph88%30.15 "HgN/A
12:00 AM61 °FPassing clouds.8 mph88%30.15 "HgN/A
11:00 PM
Sat, Apr 25
63 °FPassing clouds.7 mph83%30.18 "HgN/A
10:00 PM63 °FPassing clouds.10 mph83%30.18 "HgN/A
9:00 PM64 °FPassing clouds.10 mph73%30.18 "HgN/A
8:00 PM66 °FClear.9 mph68%30.15 "Hg10 mi
7:00 PM68 °FClear.10 mph69%30.12 "Hg10 mi
Weather by CustomWeather, © 2015

See weather overviewHow to use our weather pages